period_start,C,m1,H,J0,J1,J2,J3,J4,J5,JA,JB,JC,JD,JJ,JK,JN,#
2014-11-25 00:00:37,0.23,4.43,0.00,23.23,27.97,31.11,4.77,27.14,1010.76,2026.01,1996.55,2278.77,2474.55,350.29,345.71,24.84,0000 0000 0000 0000 000000
2014-11-25 00:05:38,0.21,4.44,0.00,23.16,27.97,31.08,4.78,27.09,1010.76,2026.00,1995.09,2277.67,2473.35,350.46,345.87,24.87,0000 0000 0000 0000 000000
2014-11-25 00:10:39,0.24,4.45,0.00,23.26,27.97,31.07,4.74,27.08,1010.75,2026.00,1993.51,2276.46,2472.03,349.46,345.09,24.90,0000 0000 0000 0000 000000
2014-11-25 00:15:41,0.24,4.46,0.00,23.26,27.97,31.07,4.69,27.08,1010.75,2026.00,1991.89,2275.28,2470.80,349.77,345.16,24.93,0000 0000 0000 0000 000000
2014-11-25 00:20:41,0.23,4.46,0.00,23.14,27.97,31.09,4.76,27.15,1010.74,2026.00,1990.42,2274.11,2469.58,349.81,345.25,24.96,0000 0000 0000 0000 000000
2014-11-25 00:25:43,0.19,4.47,0.00,23.22,27.97,31.09,4.75,27.21,1010.75,2025.99,1989.14,2272.98,2468.31,349.62,344.76,24.99,0000 0000 0000 0000 000000
2014-11-25 00:30:44,0.23,4.48,0.00,23.26,27.97,31.08,4.75,27.13,1010.76,2025.99,1987.77,2271.90,2466.97,350.00,345.51,25.02,0000 0000 0000 0000 000000
2014-11-25 00:35:45,0.26,4.48,0.00,23.27,27.97,31.08,4.76,27.09,1010.76,2025.99,1986.42,2270.71,2465.71,349.88,345.24,25.05,0000 0000 0000 0000 000000
2014-11-25 00:40:47,0.24,4.49,0.00,23.28,27.97,31.08,4.76,27.10,1010.76,2025.99,1984.90,2269.54,2464.51,350.11,345.27,25.07,0000 0000 0000 0000 000000
2014-11-25 00:45:48,0.20,4.49,0.00,23.18,27.97,31.08,4.79,27.18,1010.75,2025.99,1983.70,2268.50,2463.32,350.52,345.86,25.10,0000 0000 0000 0000 000000
2014-11-25 00:50:49,0.21,4.50,0.00,23.16,27.97,31.12,4.74,27.11,1010.72,2025.99,1982.33,2267.41,2462.08,349.82,345.16,25.13,0000 0000 0000 0000 000000
2014-11-25 00:55:50,0.22,4.51,0.00,23.24,27.97,31.11,4.79,27.12,1010.69,2025.99,1980.83,2266.29,2460.92,349.62,345.18,25.16,0000 0000 0000 0000 000000
2014-11-25 01:00:51,0.22,4.51,0.00,23.26,27.97,31.09,4.68,27.14,1010.58,2025.99,1979.38,2265.21,2459.76,349.17,344.50,25.19,0000 0000 0000 0000 000000
2014-11-25 01:05:53,0.21,4.52,0.00,23.26,27.97,31.09,4.76,27.05,1010.67,2025.99,1977.92,2264.09,2458.66,349.92,345.52,25.22,0000 0000 0000 0000 000000
2014-11-25 01:10:54,0.21,4.53,0.00,23.11,27.97,31.09,4.76,27.16,1010.69,2025.99,1976.71,2263.05,2457.39,350.46,346.02,25.25,0000 0000 0000 0000 000000
2014-11-25 01:15:55,0.20,4.53,0.00,23.12,27.96,31.10,4.73,27.04,1010.64,2025.99,1975.50,2262.02,2456.26,349.92,345.43,25.28,0000 0000 0000 0000 000000
2014-11-25 01:20:57,0.21,4.54,0.00,23.16,27.96,31.08,4.76,27.17,1010.55,2025.99,1974.04,2260.98,2455.10,350.08,345.53,25.31,0000 0000 0000 0000 000000
2014-11-25 01:25:58,0.24,4.55,0.00,23.15,27.95,31.08,4.76,27.13,1010.73,2025.99,1972.61,2259.86,2453.84,349.50,345.09,25.34,0000 0000 0000 0000 000000
2014-11-25 01:30:59,0.23,4.55,0.00,23.19,27.95,31.07,4.65,27.16,1010.71,2025.99,1971.35,2258.74,2452.63,349.75,345.39,25.37,0000 0000 0000 0000 000000
2014-11-25 01:36:00,0.22,4.56,0.00,23.21,27.95,31.06,4.80,27.13,1010.66,2025.99,1969.89,2257.64,2451.50,350.36,345.66,25.40,0000 0000 0000 0000 000000
2014-11-25 01:41:02,0.23,4.57,0.00,23.10,27.95,31.09,4.79,27.18,1010.46,2025.98,1968.41,2256.53,2450.29,350.32,345.77,25.43,0000 0000 0000 0000 000000
2014-11-25 01:46:03,0.19,4.57,0.00,23.13,27.95,31.11,4.72,27.10,1010.39,2025.98,1967.03,2255.50,2449.17,349.59,345.10,25.46,0000 0000 0000 0000 000000
2014-11-25 01:51:04,0.23,4.58,0.00,23.13,27.95,31.09,4.79,27.18,1010.30,2025.99,1965.66,2254.45,2448.06,350.50,345.93,25.48,0000 0000 0000 0000 000000
2014-11-25 01:56:05,0.21,4.59,0.00,23.12,27.95,31.09,4.78,27.16,1010.31,2025.99,1964.29,2253.39,2446.89,350.32,345.67,25.51,0000 0000 0000 0000 000000
2014-11-25 02:01:07,0.23,4.59,0.00,23.15,27.95,31.07,4.75,27.25,1010.30,2025.99,1962.79,2252.33,2445.75,350.04,345.33,25.54,0000 0000 0000 0000 000000
2014-11-25 02:06:08,0.21,4.60,0.00,23.18,27.95,31.08,4.80,27.12,1010.32,2025.99,1961.45,2251.29,2444.59,350.07,345.48,25.57,0000 0000 0000 0000 000000
2014-11-25 02:11:09,0.20,4.61,0.00,23.08,27.95,31.09,4.73,27.11,1010.42,2025.99,1960.09,2250.18,2443.40,349.47,345.22,25.60,0000 0000 0000 0000 000000
2014-11-25 02:16:10,0.22,4.61,0.00,23.12,27.95,31.09,4.78,27.13,1010.33,2025.99,1958.72,2249.10,2442.22,350.71,345.93,25.63,0000 0000 0000 0000 000000
2014-11-25 02:21:11,0.21,4.62,0.00,23.13,27.95,31.08,4.79,27.18,1010.30,2025.99,1957.43,2248.06,2441.11,350.00,345.27,25.66,0000 0000 0000 0000 000000
2014-11-25 02:26:12,0.21,4.62,0.00,23.17,27.95,31.08,4.74,27.12,1010.28,2025.99,1956.04,2247.00,2439.95,349.84,345.10,25.69,0000 0000 0000 0000 000000
2014-11-25 02:31:14,0.25,4.63,0.00,23.20,27.95,31.09,4.72,27.10,1010.30,2025.99,1954.62,2245.88,2438.74,350.11,345.42,25.72,0000 0000 0000 0000 000000
2014-11-25 02:36:15,0.21,4.64,0.00,23.08,27.95,31.10,4.77,27.05,1010.29,2025.99,1953.27,2244.82,2437.60,350.00,345.59,25.75,0000 0000 0000 0000 000000
2014-11-25 02:41:17,0.24,4.65,0.00,23.06,27.95,31.12,4.77,27.26,1010.29,2025.98,1951.86,2243.67,2436.38,349.71,345.29,25.78,0000 0000 0000 0000 000000
2014-11-25 02:46:18,0.21,4.65,0.00,23.13,27.95,31.09,4.78,27.13,1010.30,2025.99,1950.57,2242.65,2435.25,350.43,345.85,25.81,0000 0000 0000 0000 000000
2014-11-25 02:51:19,0.20,4.66,0.00,23.19,27.95,31.09,4.79,27.22,1010.30,2025.99,1949.20,2241.63,2434.08,349.88,345.28,25.84,0000 0000 0000 0000 000000
2014-11-25 02:56:21,0.23,4.66,0.00,23.17,27.95,31.11,4.80,27.24,1010.29,2025.99,1947.73,2240.54,2432.93,350.01,345.28,25.87,0000 0000 0000 0000 000000
2014-11-25 03:01:22,0.20,4.67,0.00,23.08,27.95,31.10,4.80,27.21,1010.31,2025.99,1946.43,2239.58,2431.84,349.86,345.28,25.89,0000 0000 0000 0000 000000
2014-11-25 03:06:24,0.20,4.68,0.00,23.16,27.95,31.09,4.74,27.24,1010.29,2025.99,1945.15,2238.62,2430.72,350.12,345.53,25.92,0000 0000 0000 0000 000000
2014-11-25 03:11:25,0.22,4.68,0.00,23.12,27.95,31.10,4.78,27.17,1010.30,2025.99,1943.86,2237.60,2429.57,350.22,345.62,25.95,0000 0000 0000 0000 000000
2014-11-25 03:16:26,0.23,4.69,0.00,23.09,27.95,31.09,4.87,27.27,1010.29,2025.98,1942.52,2236.58,2428.40,350.36,345.77,25.98,0000 0000 0000 0000 000000
2014-11-25 03:21:27,0.21,4.70,0.00,23.13,27.95,31.09,4.71,27.22,1010.30,2025.98,1941.11,2235.43,2427.21,349.65,345.01,26.01,0000 0000 0000 0000 000000
2014-11-25 03:26:29,0.23,4.70,0.00,23.13,27.95,31.07,4.75,27.23,1010.36,2025.98,1939.75,2234.34,2426.00,350.17,345.55,26.04,0000 0000 0000 0000 000000
2014-11-25 03:31:30,0.20,4.71,0.00,23.16,27.95,31.05,4.75,27.07,1010.34,2025.98,1938.38,2233.39,2424.90,350.21,345.39,26.07,0000 0000 0000 0000 000000
2014-11-25 03:36:32,0.24,4.72,0.00,23.18,27.95,31.06,4.82,27.30,1010.29,2025.99,1936.87,2232.25,2423.76,349.76,345.18,26.10,0000 0000 0000 0000 000000
2014-11-25 03:41:33,0.22,4.72,0.00,23.12,27.95,31.09,4.79,27.17,1010.28,2025.98,1935.49,2231.18,2422.55,349.97,345.43,26.13,0000 0000 0000 0000 000000
2014-11-25 03:46:34,0.19,4.73,0.00,23.07,27.95,31.10,4.74,27.18,1010.28,2025.99,1934.32,2230.22,2421.49,349.73,345.28,26.16,0000 0000 0000 0000 000000
2014-11-25 03:51:36,0.21,4.74,0.00,23.15,27.95,31.09,4.81,27.18,1010.29,2025.98,1932.92,2229.11,2420.38,350.31,345.54,26.19,0000 0000 0000 0000 000000
2014-11-25 03:56:37,0.21,4.74,0.00,23.16,27.95,31.08,4.78,27.34,1010.28,2025.98,1931.62,2228.08,2419.21,349.59,345.05,26.22,0000 0000 0000 0000 000000
2014-11-25 04:01:38,0.20,4.75,0.00,23.19,27.95,31.04,4.71,27.18,1010.28,2025.99,1930.27,2227.08,2418.10,349.61,344.81,26.25,0000 0000 0000 0000 000000
2014-11-25 04:06:40,0.21,4.75,0.00,23.12,27.95,31.07,4.78,27.25,1010.28,2025.98,1928.93,2226.01,2416.94,350.28,345.67,26.28,0000 0000 0000 0000 000000
2014-11-25 04:11:41,0.23,4.76,0.00,23.10,27.95,31.06,4.69,27.26,1010.28,2025.98,1927.60,2224.93,2415.81,349.29,344.75,26.31,0000 0000 0000 0000 000000
2014-11-25 04:16:42,0.21,4.77,0.00,23.16,27.95,31.07,4.84,27.27,1010.28,2025.98,1926.26,2223.92,2414.63,350.45,345.86,26.33,0000 0000 0000 0000 000000
2014-11-25 04:21:44,0.24,4.77,0.00,23.21,27.95,31.07,4.76,27.23,1010.27,2025.99,1924.81,2222.87,2413.55,350.02,345.30,26.36,0000 0000 0000 0000 000000
2014-11-25 04:26:45,0.21,4.78,0.00,23.18,27.94,31.06,4.77,27.24,1010.28,2025.98,1923.75,2221.80,2412.32,349.76,345.07,26.39,0000 0000 0000 0000 000000
2014-11-25 04:31:47,0.25,4.79,0.00,23.10,27.95,31.09,4.73,27.06,1010.29,2025.98,1922.47,2220.67,2410.89,349.61,345.06,26.42,0000 0000 0000 0000 000000
2014-11-25 04:36:48,0.26,4.79,0.00,23.15,27.95,31.07,4.80,27.32,1010.29,2025.97,1920.90,2219.51,2409.65,350.04,345.36,26.45,0000 0000 0000 0000 000000
2014-11-25 04:41:50,0.22,4.80,0.00,23.15,27.94,31.09,4.78,27.21,1010.27,2025.98,1919.37,2218.37,2408.47,350.18,345.52,26.48,0000 0000 0000 0000 000000
2014-11-25 04:46:51,0.21,4.81,0.00,23.14,27.94,31.07,4.82,27.30,1010.30,2025.98,1918.08,2217.25,2407.20,350.56,345.92,26.51,0000 0000 0000 0000 000000
2014-11-25 04:51:53,0.22,4.82,0.00,23.16,27.93,31.06,4.84,27.22,1010.31,2025.98,1916.68,2216.16,2406.00,350.56,345.79,26.54,0000 0000 0000 0000 000000
2014-11-25 04:56:54,0.24,4.82,0.00,23.15,27.93,31.07,4.74,27.37,1010.44,2025.99,1915.22,2215.04,2404.77,350.21,345.65,26.57,0000 0000 0000 0000 000000
2014-11-25 05:01:56,0.23,4.83,0.00,23.09,27.93,31.06,4.83,27.35,1010.31,2025.98,1913.78,2213.90,2403.57,349.97,345.47,26.60,0000 0000 0000 0000 000000
2014-11-25 05:06:57,0.23,4.84,0.00,23.16,27.92,31.09,4.76,27.27,1010.42,2025.97,1912.46,2212.81,2402.40,349.43,345.06,26.63,0000 0000 0000 0000 000000
2014-11-25 05:11:59,0.20,4.84,0.00,23.16,27.92,31.08,4.78,27.30,1010.71,2025.98,1911.15,2211.81,2401.25,350.03,345.34,26.66,0000 0000 0000 0000 000000
2014-11-25 05:17:00,0.23,4.85,0.00,23.16,27.92,31.06,4.78,27.32,1010.71,2025.97,1909.74,2210.77,2400.12,350.45,346.12,26.69,0000 0000 0000 0000 000000
2014-11-25 05:22:01,0.24,4.86,0.00,23.14,27.92,31.08,4.74,27.27,1010.76,2025.95,1908.37,2209.67,2398.87,349.73,345.25,26.72,0000 0000 0000 0000 000000
2014-11-25 05:27:02,0.22,4.86,0.00,23.16,27.92,31.07,4.84,27.26,1010.73,2025.96,1906.98,2208.65,2397.75,350.36,345.81,26.74,0000 0000 0000 0000 000000
2014-11-25 05:32:04,0.21,4.87,0.00,23.10,27.92,31.05,4.78,27.25,1010.75,2025.97,1905.71,2207.71,2396.72,349.86,345.66,26.77,0000 0000 0000 0000 000000
2014-11-25 05:37:05,0.23,4.87,0.00,23.10,27.92,31.09,4.81,27.33,1010.76,2025.97,1904.40,2206.65,2395.66,350.56,346.14,26.80,0000 0000 0000 0000 000000
2014-11-25 05:42:06,0.20,4.88,0.00,23.13,27.92,31.07,4.84,27.32,1010.76,2025.97,1903.11,2205.63,2394.49,349.96,345.50,26.83,0000 0000 0000 0000 000000
2014-11-25 05:47:07,0.20,4.89,0.00,23.14,27.91,31.07,4.81,27.33,1010.75,2025.99,1901.94,2204.68,2393.48,350.49,345.83,26.86,0000 0000 0000 0000 000000
2014-11-25 05:52:09,0.24,4.89,0.00,23.13,27.91,31.07,4.81,27.19,1010.76,2025.99,1900.61,2203.63,2392.37,349.98,345.47,26.89,0000 0000 0000 0000 000000
2014-11-25 05:57:10,0.20,4.90,0.00,23.13,27.90,31.07,4.83,27.30,1010.76,2025.96,1899.32,2202.61,2391.24,350.47,345.89,26.92,0000 0000 0000 0000 000000
2014-11-25 06:02:11,0.21,4.91,0.00,23.12,27.90,31.08,4.78,27.20,1010.76,2025.98,1897.99,2201.64,2390.05,349.79,345.34,26.95,0000 0000 0000 0000 000000
2014-11-25 06:07:12,0.22,4.91,0.00,23.05,27.90,31.06,4.78,27.30,1010.76,2025.98,1896.75,2200.59,2388.93,349.61,345.20,26.98,0000 0000 0000 0000 000000
2014-11-25 06:12:13,0.23,4.92,0.00,23.08,27.90,31.08,4.75,27.20,1010.76,2025.97,1895.48,2199.56,2387.81,349.84,345.50,27.01,0000 0000 0000 0000 000000
2014-11-25 06:17:15,0.22,4.93,0.00,23.07,27.90,31.07,4.80,27.26,1010.76,2025.97,1894.00,2198.53,2386.76,349.97,345.58,27.04,0000 0000 0000 0000 000000
2014-11-25 06:22:16,0.23,4.93,0.00,23.06,27.90,31.05,4.74,27.27,1010.76,2025.97,1892.68,2197.52,2385.64,349.90,345.52,27.07,0000 0000 0000 0000 000000
2014-11-25 06:27:17,0.21,4.94,0.00,23.04,27.90,31.06,4.81,27.35,1010.76,2025.97,1891.45,2196.55,2384.59,350.16,345.79,27.10,0000 0000 0000 0000 000000
2014-11-25 06:32:18,0.22,4.95,0.00,23.04,27.89,31.06,4.77,27.21,1010.76,2025.96,1890.07,2195.49,2383.52,349.86,345.48,27.13,0000 0000 0000 0000 000000
2014-11-25 06:37:20,0.22,4.95,0.00,23.07,27.88,31.04,4.80,27.39,1010.76,2025.96,1888.69,2194.45,2382.36,350.01,345.75,27.15,0000 0000 0000 0000 000000
2014-11-25 06:42:21,0.20,4.96,0.00,23.05,27.87,31.06,4.71,27.29,1010.76,2025.98,1887.56,2193.45,2381.22,350.11,345.77,27.18,0000 0000 0000 0000 000000
2014-11-25 06:47:22,0.20,4.97,0.00,23.03,27.87,31.05,4.82,27.27,1010.76,2025.98,1886.27,2192.49,2380.15,350.44,346.01,27.21,0000 0000 0000 0000 000000
2014-11-25 06:52:23,0.20,4.97,0.00,23.02,27.87,31.03,4.78,27.31,1010.76,2025.98,1885.05,2191.53,2379.03,350.27,345.69,27.24,0000 0000 0000 0000 000000
2014-11-25 06:57:24,0.24,4.98,0.00,23.04,27.87,31.02,4.75,27.27,1010.76,2025.99,1883.74,2190.50,2377.91,349.87,345.53,27.27,0000 0000 0000 0000 000000
2014-11-25 07:02:26,0.21,4.99,0.00,23.06,27.87,31.03,4.77,27.25,1010.76,2025.99,1882.40,2189.47,2376.87,350.19,345.80,27.30,0000 0000 0000 0000 000000
2014-11-25 07:07:27,0.23,4.99,0.00,23.04,27.87,31.04,4.76,27.20,1010.76,2025.99,1880.91,2188.44,2375.79,349.84,345.60,27.33,0000 0000 0000 0000 000000
2014-11-25 07:12:29,0.23,5.00,0.00,23.02,27.87,31.04,4.76,27.22,1010.78,2025.99,1879.59,2187.41,2374.62,350.36,346.12,27.36,0000 0000 0000 0000 000000
2014-11-25 07:17:30,0.21,5.01,0.00,23.01,27.87,31.06,4.71,27.12,1010.77,2025.99,1878.48,2186.28,2373.30,349.44,345.15,27.39,0000 0000 0000 0000 000000
2014-11-25 07:22:32,0.24,5.01,0.00,23.00,27.87,31.03,4.76,27.18,1010.76,2025.99,1876.91,2185.20,2372.17,349.75,345.38,27.42,0000 0000 0000 0000 000000
2014-11-25 07:27:33,0.23,5.02,0.00,22.98,27.86,31.02,4.81,27.33,1010.77,2025.97,1875.47,2184.03,2370.96,349.91,345.80,27.45,0000 0000 0000 0000 000000
2014-11-25 07:32:35,0.29,5.03,0.00,23.00,27.85,31.01,4.81,27.24,1010.79,2025.97,1873.97,2182.79,2369.59,350.05,345.75,27.48,0000 0000 0000 0000 000000
2014-11-25 07:37:36,0.29,5.04,0.00,22.98,27.85,31.01,4.84,27.37,1010.76,2025.97,1872.16,2181.55,2368.13,350.41,346.17,27.51,0000 0000 0000 0000 000000
2014-11-25 07:42:37,0.29,5.05,0.00,22.94,27.85,30.99,4.74,27.30,1010.76,2025.98,1870.28,2180.07,2366.78,349.66,345.31,27.54,0000 0000 0000 0000 000000
2014-11-25 07:47:38,0.33,5.05,0.00,22.95,27.85,31.00,4.82,27.18,1010.77,2025.98,1868.42,2178.59,2365.26,350.29,346.10,27.56,0000 0000 0000 0000 000000
2014-11-25 07:52:39,0.33,5.06,0.00,22.96,27.84,31.00,4.78,27.27,1010.77,2025.99,1866.45,2177.07,2363.64,349.86,345.54,27.59,0000 0000 0000 0000 000000
2014-11-25 07:57:40,0.32,5.07,0.00,22.95,27.83,31.02,4.74,27.23,1010.76,2025.99,1864.49,2175.61,2362.09,349.02,344.70,27.62,0000 0000 0000 0000 000000
2014-11-25 08:02:42,0.31,5.08,0.00,22.95,27.82,30.99,4.86,27.32,1010.77,2025.99,1862.53,2174.28,2360.58,350.42,346.06,27.65,0000 0000 0000 0000 000000
2014-11-25 08:07:43,0.35,5.09,0.00,22.90,27.82,31.00,4.81,27.21,1010.77,2025.99,1860.49,2172.71,2358.99,349.83,345.64,27.68,0000 0000 0000 0000 000000
2014-11-25 08:12:44,0.34,5.10,0.00,22.91,27.82,30.98,4.79,27.23,1010.77,2025.99,1858.36,2171.09,2357.23,350.04,345.87,27.71,0000 0000 0000 0000 000000
2014-11-25 08:17:45,0.43,5.12,0.00,22.92,27.82,31.00,4.77,27.27,1010.81,2025.99,1856.05,2169.30,2355.29,349.93,345.73,27.74,0000 0000 0000 0000 000000
2014-11-25 08:22:47,0.35,5.13,0.00,22.92,27.82,31.00,4.76,27.25,1010.95,2025.99,1854.05,2167.64,2353.49,350.01,345.95,27.77,0000 0000 0000 0000 000000
2014-11-25 08:27:48,0.35,5.14,0.00,22.92,27.81,30.99,4.71,27.21,1011.06,2025.99,1852.07,2166.04,2351.63,349.38,345.30,27.80,0000 0000 0000 0000 000000
2014-11-25 08:32:49,0.39,5.15,0.00,22.91,27.80,30.97,4.81,27.31,1011.05,2026.00,1849.82,2164.36,2349.74,349.96,345.86,27.83,0000 0000 0000 0000 000000
2014-11-25 08:37:50,0.39,5.16,0.00,22.88,27.80,30.98,4.77,27.44,1010.95,2026.00,1847.57,2162.60,2347.85,349.96,345.96,27.86,0000 0000 0000 0000 000000
2014-11-25 08:42:52,0.37,5.17,0.00,22.87,27.80,30.98,4.80,27.38,1010.86,2025.99,1845.34,2160.84,2346.01,349.84,345.82,27.89,0000 0000 0000 0000 000000
2014-11-25 08:47:53,0.32,5.18,0.00,22.87,27.80,30.97,4.68,27.28,1010.85,2025.99,1843.36,2159.39,2344.42,349.37,345.27,27.92,0000 0000 0000 0000 000000
2014-11-25 08:52:54,0.36,5.19,0.00,22.85,27.80,30.98,4.78,27.32,1011.10,2025.99,1841.36,2157.81,2342.70,350.43,346.34,27.95,0000 0000 0000 0000 000000
2014-11-25 08:57:56,0.32,5.20,0.00,22.82,27.79,30.95,4.77,27.28,1011.22,2025.99,1839.33,2156.36,2341.13,350.15,346.11,27.97,0000 0000 0000 0000 000000
2014-11-25 09:02:57,0.35,5.21,0.00,22.82,27.77,30.96,4.80,27.28,1011.21,2025.99,1837.25,2154.86,2339.66,349.84,345.69,28.00,0000 0000 0000 0000 000000
2014-11-25 09:07:58,0.31,5.22,0.00,22.82,27.77,30.93,4.76,27.29,1011.24,2025.99,1835.38,2153.49,2338.31,349.98,345.91,28.03,0000 0000 0000 0000 000000
2014-11-25 09:12:59,0.34,5.23,0.00,22.81,27.77,30.94,4.85,27.32,1011.24,2025.99,1833.49,2152.06,2336.67,350.23,346.30,28.06,0000 0000 0000 0000 000000
2014-11-25 09:18:00,0.32,5.24,0.00,22.80,27.77,30.95,4.80,27.30,1011.25,2025.99,1831.52,2150.55,2335.13,349.84,345.80,28.09,0000 0000 0000 0000 000000
2014-11-25 09:23:02,0.23,5.25,0.00,22.79,27.76,30.91,4.77,27.23,1011.25,2026.00,1830.03,2149.47,2333.99,350.46,346.52,28.12,0000 0000 0000 0000 000000
2014-11-25 09:28:03,0.22,5.25,0.00,22.77,27.75,30.91,4.79,27.32,1011.25,2026.00,1828.79,2148.51,2332.92,349.80,345.87,28.15,0000 0000 0000 0000 000000
2014-11-25 09:33:04,0.24,5.26,0.00,22.75,27.75,30.91,4.77,27.24,1011.25,2026.00,1827.52,2147.50,2331.75,349.96,346.06,28.18,0000 0000 0000 0000 000000
2014-11-25 09:38:05,0.29,5.27,0.00,22.74,27.75,30.89,4.77,27.40,1011.26,2026.00,1825.93,2146.25,2330.34,349.96,346.10,28.21,0000 0000 0000 0000 000000
2014-11-25 09:43:07,0.31,5.28,0.00,22.73,27.74,30.87,4.80,27.32,1011.27,2026.00,1824.34,2144.76,2328.66,350.12,346.43,28.24,0000 0000 0000 0000 000000
2014-11-25 09:48:08,0.36,5.29,0.00,22.70,27.72,30.89,4.79,27.25,1011.29,2026.00,1822.30,2143.27,2326.90,349.95,345.97,28.27,0000 0000 0000 0000 000000
2014-11-25 09:53:09,0.37,5.30,0.00,22.71,27.72,30.85,4.82,27.35,1011.28,2026.00,1820.09,2141.63,2325.35,350.85,346.96,28.30,0000 0000 0000 0000 000000
2014-11-25 09:58:10,0.35,5.31,0.00,22.68,27.72,30.87,4.82,27.38,1011.39,2026.00,1818.01,2140.09,2323.71,350.42,346.66,28.33,0000 0000 0000 0000 000000
2014-11-25 10:03:12,0.36,5.32,0.00,22.67,27.71,30.86,4.76,27.29,1011.45,2026.01,1815.89,2138.58,2322.06,349.89,346.23,28.35,0000 0000 0000 0000 000000
2014-11-25 10:08:12,0.34,5.33,0.00,22.67,27.70,30.83,4.82,27.27,1011.43,2026.00,1813.91,2136.98,2320.42,350.57,346.89,28.38,0000 0000 0000 0000 000000
2014-11-25 10:13:14,0.35,5.34,0.00,22.65,27.70,30.81,4.74,27.25,1011.47,2026.01,1811.95,2135.53,2318.83,349.36,345.79,28.41,0000 0000 0000 0000 000000
2014-11-25 10:18:15,0.32,5.35,0.00,22.64,27.68,30.79,4.78,27.38,1011.52,2026.01,1809.99,2134.08,2317.39,349.19,345.53,28.44,0000 0000 0000 0000 000000
2014-11-25 10:23:16,0.36,5.36,0.00,22.63,27.67,30.78,4.83,27.33,1011.55,2026.05,1808.15,2132.62,2315.73,350.48,346.80,28.47,0000 0000 0000 0000 000000
2014-11-25 10:28:18,0.34,5.37,0.00,22.61,27.67,30.79,4.87,27.38,1011.69,2026.06,1806.13,2131.19,2314.13,350.57,347.06,28.50,0000 0000 0000 0000 000000
2014-11-25 10:33:19,0.35,5.38,0.00,22.59,27.65,30.76,4.69,27.32,1011.73,2026.07,1804.20,2129.63,2312.51,349.19,345.61,28.53,0000 0000 0000 0000 000000
2014-11-25 10:38:20,0.34,5.39,0.00,22.59,27.65,30.75,4.84,27.41,1011.73,2026.11,1802.20,2128.21,2310.95,350.39,347.01,28.56,0000 0000 0000 0000 000000
2014-11-25 10:43:22,0.40,5.40,0.00,22.57,27.62,30.77,4.78,27.48,1011.73,2026.41,1800.34,2126.74,2309.51,349.78,346.34,28.59,0000 0000 0000 0000 000000
2014-11-25 10:48:23,0.35,5.42,0.00,22.55,27.62,30.72,4.79,27.37,1011.73,2026.63,1798.43,2125.42,2308.01,349.88,346.53,28.62,0000 0000 0000 0000 000000
2014-11-25 10:53:24,0.34,5.43,0.00,22.55,27.61,30.73,4.80,27.46,1011.73,2026.83,1796.65,2124.05,2306.61,349.67,346.13,28.65,0000 0000 0000 0000 000000
2014-11-25 10:58:25,0.29,5.43,0.00,22.54,27.60,30.71,4.72,27.43,1011.73,2026.90,1795.13,2122.79,2305.28,349.44,346.01,28.68,0000 0000 0000 0000 000000
2014-11-25 11:03:26,0.45,5.45,0.00,22.50,27.59,30.72,4.69,27.45,1011.73,2026.87,1792.89,2121.03,2303.28,349.60,346.22,28.71,0000 0000 0000 0000 000000
2014-11-25 11:08:28,0.46,5.46,0.00,22.48,27.57,30.70,4.81,27.43,1011.73,2026.90,1790.23,2119.07,2301.37,350.09,346.54,28.74,0000 0000 0000 0000 000000
2014-11-25 11:13:29,0.46,5.47,0.00,22.47,27.57,30.69,4.82,27.44,1011.73,2026.96,1787.56,2117.09,2299.33,350.41,347.07,28.77,0000 0000 0000 0000 000000
2014-11-25 11:18:30,0.37,5.49,0.00,22.46,27.55,30.66,4.83,27.43,1011.73,2026.97,1785.51,2115.38,2297.39,349.40,346.02,28.79,0000 0000 0000 0000 000000
2014-11-25 11:23:31,0.38,5.49,0.00,22.46,27.55,30.65,4.78,27.46,1011.73,2026.96,1783.65,2113.72,2295.59,349.19,345.84,28.82,0000 0000 0000 0000 000000
2014-11-25 11:28:33,0.33,5.51,0.00,22.45,27.53,30.63,4.82,27.54,1011.73,2026.98,1781.61,2112.33,2293.95,350.21,346.82,28.85,0000 0000 0000 0000 000000
2014-11-25 11:33:34,0.39,5.52,0.00,22.43,27.52,30.61,4.78,27.38,1011.72,2026.99,1779.47,2110.73,2292.17,350.58,347.40,28.88,0000 0000 0000 0000 000000
2014-11-25 11:38:35,0.50,5.53,0.00,22.41,27.51,30.64,4.85,27.55,1011.73,2026.99,1776.85,2108.81,2289.99,350.26,346.96,28.91,0000 0000 0000 0000 000000
2014-11-25 11:43:36,0.48,5.55,0.00,22.40,27.50,30.61,4.80,27.45,1011.73,2026.99,1774.06,2106.75,2287.89,349.47,346.17,28.94,0000 0000 0000 0000 000000
2014-11-25 11:48:38,0.44,5.56,0.00,22.40,27.48,30.59,4.77,27.32,1011.73,2026.99,1771.59,2104.87,2285.92,350.31,347.06,28.97,0000 0000 0000 0000 000000
2014-11-25 11:53:39,0.46,5.57,0.00,22.39,27.47,30.55,4.79,27.46,1011.73,2026.99,1769.10,2103.00,2283.93,350.05,346.88,29.00,0000 0000 0000 0000 000000
2014-11-25 11:58:41,0.43,5.58,0.00,22.38,27.46,30.55,4.79,27.60,1011.73,2026.99,1766.65,2101.12,2281.93,349.19,345.94,29.03,0000 0000 0000 0000 000000
2014-11-25 12:03:42,0.48,5.60,0.00,22.36,27.45,30.55,4.79,27.44,1011.73,2026.99,1764.06,2099.17,2279.78,350.44,347.06,29.06,0000 0000 0000 0000 000000
2014-11-25 12:08:43,0.59,5.61,0.00,22.35,27.43,30.57,4.78,27.46,1011.74,2026.99,1760.88,2096.69,2277.17,349.64,346.29,29.09,0000 0000 0000 0000 000000
2014-11-25 12:13:45,0.62,5.63,0.00,22.35,27.42,30.53,4.79,27.47,1011.74,2027.00,1757.54,2094.10,2274.38,349.56,346.35,29.12,0000 0000 0000 0000 000000
2014-11-25 12:18:46,0.58,5.65,0.00,22.34,27.41,30.54,4.86,27.39,1011.74,2027.00,1754.31,2091.67,2271.93,350.92,347.63,29.15,0000 0000 0000 0000 000000
2014-11-25 12:23:47,0.63,5.67,0.00,22.32,27.40,30.54,4.79,27.41,1011.77,2027.00,1750.92,2089.12,2269.28,350.11,347.16,29.17,0000 0000 0000 0000 000000
2014-11-25 12:28:48,0.60,5.69,0.50,22.30,27.39,30.49,4.80,27.48,1011.78,2027.05,1747.48,2086.50,2266.54,349.83,346.71,29.20,0000 0000 0000 0000 000000
2014-11-25 12:33:49,0.51,5.70,1.00,22.30,27.37,30.48,4.85,27.43,1011.75,2027.05,1744.86,2084.29,2264.03,349.55,346.50,29.23,0000 0000 0000 0000 000000
2014-11-25 12:38:51,0.67,5.72,1.00,22.27,27.36,30.47,4.83,27.61,1011.74,2027.04,1741.55,2081.68,2261.20,350.07,346.88,29.26,0000 0000 0000 0000 000000
2014-11-25 12:43:52,0.63,5.74,1.00,22.26,27.35,30.46,4.80,27.38,1011.74,2027.13,1738.09,2078.98,2258.34,350.28,347.17,29.29,0000 0000 0000 0000 000000
2014-11-25 12:48:53,0.52,5.75,1.00,22.24,27.33,30.44,4.87,27.49,1011.77,2027.10,1735.29,2076.76,2256.02,350.40,347.26,29.32,0000 0000 0000 0000 000000
2014-11-25 12:53:55,0.63,5.77,1.00,22.23,27.32,30.44,4.79,27.44,1011.80,2027.15,1732.17,2074.32,2253.37,349.92,346.80,29.35,0000 0000 0000 0000 000000
2014-11-25 12:58:56,0.67,5.79,1.00,22.22,27.31,30.39,4.75,27.45,1011.76,2027.25,1728.76,2071.65,2250.58,349.56,346.47,29.38,0000 0000 0000 0000 000000